#timestamp,LO_Frequency,Hit,StdDev 
1621526415.0,286047002.4,N
1621526415.9,286047002.4,N
1621526435.8,286047000.1,N
1621526455.6,286047002.4,N
1621526475.4,286047002.8,N
1621526495.3,286046999.7,N
1621526515.1,286047000.0,N
1621526535.8,286046999.9,N
1621526555.7,286047000.7,N
1621526575.5,286047002.8,N
1621526595.4,286047002.8,N
1621526615.2,286047002.3,N
1621526635.0,286046999.8,N
1621526635.9,286046999.8,N
1621526655.8,286047002.4,N
1621526675.6,286047002.3,N
1621526695.4,286046999.7,N
1621526715.3,286046999.7,N
1621526735.1,286047001.0,N
1621526755.9,286047000.1,N
1621526775.7,286047002.4,N
1621526795.5,286047002.6,N
1621526815.4,286047001.3,N
1621526835.2,286047003.8,N
1621526855.0,286047001.7,N
1621526856.0,286047001.7,N
1621526875.8,286047001.3,N
1621526895.6,286047001.3,N
1621526915.5,286047003.6,N
1621526935.3,286047001.4,N
1621526955.1,286047004.0,Y
1621526975.9,286047002.4,P
1621526995.7,286047002.1,P
1621527015.6,286046999.8,N
1621527035.4,286046999.7,N
1621527055.2,286047001.1,N
1621527075.1,286047000.4,N
1621527076.0,286047000.4,N
1621527095.8,286047000.9,N
1621527115.6,286047000.9,N
1621527135.5,286047000.0,N
1621527155.3,286047000.0,N
1621527175.2,286047000.6,N
1621527195.9,286047000.8,N
1621527215.7,286047000.3,N
1621527235.6,286047000.4,N
1621527255.4,286047001.0,N
1621527275.2,286047001.1,N
1621527295.1,286047000.5,N
1621527296.0,286047000.5,N
1621527315.8,286047000.4,N
1621527335.7,286047002.8,Y
1621527355.5,286047000.3,P
1621527375.3,286047000.4,N
1621527395.2,286047001.1,P
1621527415.0,286047000.8,N
1621527415.9,286047000.8,N
1621527435.8,286046998.2,Y
1621527455.6,286046999.0,P
1621527475.4,286046999.6,N
1621527495.3,286046996.8,P
1621527515.1,286046997.0,N
1621527535.8,286046996.5,N
1621527555.7,286046997.0,N
1621527575.5,286046999.2,N
1621527595.4,286046998.9,N
1621527615.2,286046998.8,N
1621527635.0,286046999.1,N
1621527635.9,286046999.1,N
1621527655.8,286046999.0,N
1621527675.6,286046998.8,N
1621527695.5,286046999.3,N
1621527715.3,286046999.3,N
1621527735.1,286046999.6,N
1621527755.9,286046997.0,N
1621527775.7,286046999.2,N
1621527795.5,286046999.4,N
1621527815.4,286046999.5,N
1621527835.2,286046996.7,Y
1621527855.1,286046999.0,P
1621527856.0,286046999.0,P
1621527875.8,286046999.5,P
1621527895.6,286046996.7,Y
1621527915.5,286046999.0,P
1621527935.3,286046998.6,P
1621527955.2,286046998.7,P
1621527975.9,286046998.1,Y
1621527995.7,286047001.0,P
1621528015.6,286046998.3,N
1621528035.4,286046998.2,N
1621528055.2,286046998.4,N
1621528075.1,286046998.1,N
1621528076.0,286046998.1,N
1621528095.8,286046998.4,N
1621528115.7,286046998.9,N
1621528135.5,286046999.1,N
1621528155.3,286046998.9,N
1621528175.2,286046998.7,N
1621528195.0,286046998.7,N
1621528195.9,286046998.7,N
1621528215.8,286046998.7,N
1621528235.6,286046998.3,N
1621528255.4,286046998.3,N
1621528275.3,286046998.4,N
1621528295.1,286046998.9,N
1621528315.8,286046998.7,N
1621528335.7,286046999.1,N
1621528355.5,286046998.5,N
1621528375.4,286046998.6,N
1621528395.2,286046999.0,N
1621528415.0,286046999.3,N
1621528415.9,286046999.3,N
1621528435.8,286046999.1,N
1621528455.6,286046996.9,Y
1621528475.4,286046998.5,P
1621528495.3,286046998.8,P
1621528515.1,286046999.4,P
1621528535.9,286046999.3,N
1621528555.7,286046999.4,N
1621528575.5,286046998.5,Y
1621528595.4,286047000.5,P
1621528615.2,286047000.9,N
1621528635.1,286047000.7,N
1621528636.0,286047000.7,N
1621528655.8,286046998.1,N
1621528675.6,286046998.3,N
1621528695.5,286047000.8,N
1621528715.3,286047000.7,N
1621528735.1,286047001.1,N
1621528755.9,286046998.1,N
1621528775.7,286046999.0,N
1621528795.6,286046998.6,N
1621528815.4,286046998.7,N
1621528835.2,286046998.8,N
1621528855.1,286046999.1,N
1621528856.0,286046999.1,N
1621528875.8,286046999.3,N
1621528895.7,286046999.4,N
1621528915.5,286046999.2,N
1621528935.3,286046998.9,N
1621528955.2,286046999.2,N
1621528975.0,286046999.2,N
1621528975.9,286046999.2,N
1621528995.7,286046998.8,N
1621529015.6,286046998.6,N
1621529035.4,286046998.9,N
1621529055.3,286046998.8,N
1621529075.1,286046998.4,N
1621529076.0,286046998.4,N
1621529095.8,286046997.0,Y
1621529115.7,286046998.3,P
1621529135.5,286046998.3,P
1621529155.3,286046999.0,N
1621529175.2,286046998.3,Y
1621529195.0,286047000.4,P
1621529195.9,286047000.4,N
1621529215.8,286047000.3,N
1621529235.6,286047002.4,Y
1621529255.4,286047000.3,P
1621529275.3,286047000.0,N
1621529295.1,286047000.5,P
1621529315.9,286047000.4,N
1621529335.7,286047001.2,Y
1621529355.5,286047001.1,P
1621529375.4,286047000.8,N
1621529395.2,286047000.4,N
1621529415.1,286047000.3,N
1621529416.0,286047000.3,N
1621529435.8,286046998.1,Y
1621529455.6,286047000.7,P
1621529475.5,286047001.2,P
1621529495.3,286046998.3,P
1621529515.1,286047000.8,N
1621529535.9,286047000.8,N
1621529555.7,286046998.1,N
1621529575.6,286047001.1,N
1621529595.4,286047001.1,N
1621529615.2,286046998.4,N
1621529635.1,286047000.8,N
1621529636.0,286047000.8,N
1621529655.8,286047001.0,N
1621529675.7,286047000.5,N
1621529695.5,286047000.8,N
1621529715.3,286047001.0,N
1621529735.2,286047000.7,N
1621529755.0,286047001.1,N
1621529755.9,286047001.1,N
1621529775.8,286047000.4,N
1621529795.6,286047000.8,N
1621529815.4,286046998.4,N
1621529835.3,286046998.7,N
1621529855.1,286046999.0,N
1621529875.8,286046998.7,N
1621529895.7,286046999.0,N
1621529915.5,286046999.0,N
1621529935.4,286046999.6,N
1621529955.2,286046998.9,N
1621529975.0,286046999.3,N
1621529975.9,286046999.3,N
1621529995.8,286046998.4,N
